Time,TemperatureF,DewpointF,PressureIn,WindDirection,WindDirectionDegrees,WindSpeedMPH,WindSpeedGustMPH,Humidity,HourlyPrecipIn,Conditions,Clouds,dailyrainin,SoftwareType,DateUTC
2013-02-14 00:00:00,30.7,26.4,29.82,SSW,203,0.0,0.8,84,0.00,,,0.00,WUHU216HW,2013-02-14 05:00:00,
2013-02-14 00:05:00,30.7,26.4,29.82,SSW,203,0.0,0.0,84,0.00,,,0.00,WUHU216HW,2013-02-14 05:05:00,
2013-02-14 00:10:00,31.2,27.0,29.82,South,180,0.0,0.0,84,0.00,,,0.00,WUHU216HW,2013-02-14 05:10:00,
2013-02-14 00:15:00,31.8,27.8,29.82,South,180,0.0,0.0,85,0.00,,,0.00,WUHU216HW,2013-02-14 05:15:00,
2013-02-14 00:20:00,31.8,27.8,29.82,South,180,0.0,0.0,85,0.00,,,0.00,WUHU216HW,2013-02-14 05:20:00,
2013-02-14 00:25:00,32.3,28.3,29.81,South,180,0.0,0.0,85,0.00,,,0.00,WUHU216HW,2013-02-14 05:25:00,
2013-02-14 00:30:00,32.3,28.0,29.82,South,180,0.0,0.0,84,0.00,,,0.00,WUHU216HW,2013-02-14 05:30:00,
2013-02-14 00:35:00,32.1,27.9,29.82,South,180,0.0,0.0,84,0.00,,,0.00,WUHU216HW,2013-02-14 05:35:00,
2013-02-14 00:40:00,32.3,28.0,29.82,South,180,0.0,0.0,84,0.00,,,0.00,WUHU216HW,2013-02-14 05:40:00,
2013-02-14 00:45:00,32.3,28.0,29.82,South,180,0.0,0.0,84,0.00,,,0.00,WUHU216HW,2013-02-14 05:45:00,
2013-02-14 00:50:00,32.1,27.9,29.82,South,180,0.6,0.6,84,0.00,,,0.00,WUHU216HW,2013-02-14 05:50:00,
2013-02-14 00:55:00,31.8,27.5,29.82,South,180,0.0,1.3,84,0.00,,,0.00,WUHU216HW,2013-02-14 05:55:00,
2013-02-14 01:00:00,31.8,27.5,29.82,South,180,0.0,2.0,84,0.00,,,0.00,WUHU216HW,2013-02-14 06:00:00,
2013-02-14 01:05:00,31.8,27.5,29.82,South,180,0.0,2.0,84,0.00,,,0.00,WUHU216HW,2013-02-14 06:05:00,
2013-02-14 01:10:00,31.8,27.8,29.82,South,180,0.0,0.0,85,0.00,,,0.00,WUHU216HW,2013-02-14 06:10:00,
2013-02-14 01:15:00,32.1,28.2,29.82,South,180,0.0,0.8,85,0.00,,,0.00,WUHU216HW,2013-02-14 06:15:00,
2013-02-14 01:20:00,32.1,28.2,29.82,South,180,0.0,0.8,85,0.00,,,0.00,WUHU216HW,2013-02-14 06:20:00,
2013-02-14 01:25:00,32.3,28.0,29.82,SSW,203,1.1,4.0,84,0.00,,,0.00,WUHU216HW,2013-02-14 06:25:00,
2013-02-14 01:30:00,32.3,28.0,29.82,SSW,203,0.6,4.0,84,0.00,,,0.00,WUHU216HW,2013-02-14 06:30:00,
2013-02-14 01:35:00,32.3,28.0,29.82,South,180,1.3,1.3,84,0.00,,,0.00,WUHU216HW,2013-02-14 06:35:00,
2013-02-14 01:40:00,32.5,28.2,29.81,South,180,0.0,1.3,84,0.00,,,0.00,WUHU216HW,2013-02-14 06:40:00,
2013-02-14 01:46:00,32.7,28.2,29.81,South,180,0.0,0.8,84,0.00,,,0.00,WUHU216HW,2013-02-14 06:46:00,
2013-02-14 01:51:00,32.7,28.4,29.81,South,180,0.0,2.2,84,0.00,,,0.00,WUHU216HW,2013-02-14 06:51:00,
2013-02-14 01:56:00,33.0,29.0,29.81,South,180,0.0,2.2,85,0.00,,,0.00,WUHU216HW,2013-02-14 06:56:00,
2013-02-14 02:01:00,33.4,29.3,29.82,South,180,1.1,2.4,84,0.00,,,0.00,WUHU216HW,2013-02-14 07:01:00,
2013-02-14 02:06:00,33.8,29.3,29.81,South,180,0.0,2.4,84,0.00,,,0.00,WUHU216HW,2013-02-14 07:06:00,
2013-02-14 02:11:00,33.9,29.5,29.81,South,180,0.0,1.7,84,0.00,,,0.00,WUHU216HW,2013-02-14 07:11:00,
2013-02-14 02:16:00,34.1,29.4,29.81,South,180,0.8,1.7,83,0.00,,,0.00,WUHU216HW,2013-02-14 07:16:00,
2013-02-14 02:21:00,34.1,29.4,29.81,SSE,158,2.0,2.0,83,0.00,,,0.00,WUHU216HW,2013-02-14 07:21:00,
2013-02-14 02:26:00,34.1,29.4,29.80,SE,135,1.5,2.0,83,0.00,,,0.00,WUHU216HW,2013-02-14 07:26:00,
2013-02-14 02:31:00,33.8,28.7,29.80,SE,135,0.0,2.0,82,0.00,,,0.00,WUHU216HW,2013-02-14 07:31:00,
2013-02-14 02:36:00,33.6,28.6,29.80,SSE,158,0.0,0.0,82,0.00,,,0.00,WUHU216HW,2013-02-14 07:36:00,
2013-02-14 02:41:00,33.6,28.6,29.80,SSE,158,0.0,0.0,82,0.00,,,0.00,WUHU216HW,2013-02-14 07:41:00,
2013-02-14 02:46:00,33.6,28.6,29.80,SSE,158,0.6,0.6,82,0.00,,,0.00,WUHU216HW,2013-02-14 07:46:00,
2013-02-14 02:51:00,33.4,28.4,29.80,SSE,158,0.0,0.6,82,0.00,,,0.00,WUHU216HW,2013-02-14 07:51:00,
2013-02-14 02:56:00,33.2,28.3,29.80,SSE,158,4.2,4.2,82,0.00,,,0.00,WUHU216HW,2013-02-14 07:56:00,
2013-02-14 03:01:00,33.0,28.4,29.80,SSE,158,0.6,4.2,83,0.00,,,0.00,WUHU216HW,2013-02-14 08:01:00,
2013-02-14 03:06:00,33.0,28.4,29.80,South,180,0.6,2.6,83,0.00,,,0.00,WUHU216HW,2013-02-14 08:06:00,
2013-02-14 03:11:00,33.0,28.4,29.79,South,180,0.8,1.3,83,0.00,,,0.00,WUHU216HW,2013-02-14 08:11:00,
2013-02-14 03:16:00,32.9,28.2,29.79,SSE,158,0.0,1.3,83,0.00,,,0.00,WUHU216HW,2013-02-14 08:16:00,
2013-02-14 03:21:00,32.9,28.1,29.79,SSW,203,2.9,2.9,83,0.00,,,0.00,WUHU216HW,2013-02-14 08:21:00,
2013-02-14 03:26:00,32.7,28.1,29.79,South,180,0.0,2.9,83,0.00,,,0.00,WUHU216HW,2013-02-14 08:26:00,
2013-02-14 03:31:00,32.7,28.1,29.79,SSW,203,3.3,3.3,83,0.00,,,0.00,WUHU216HW,2013-02-14 08:31:00,
2013-02-14 03:36:00,32.7,28.1,29.79,SSE,158,2.9,3.3,83,0.00,,,0.00,WUHU216HW,2013-02-14 08:36:00,
2013-02-14 03:41:00,32.7,28.4,29.79,South,180,2.2,3.3,84,0.00,,,0.00,WUHU216HW,2013-02-14 08:41:00,
2013-02-14 03:46:00,32.7,28.4,29.79,SSE,158,1.5,2.9,84,0.00,,,0.00,WUHU216HW,2013-02-14 08:46:00,
2013-02-14 03:51:00,32.7,28.4,29.78,South,180,0.0,2.9,84,0.00,,,0.00,WUHU216HW,2013-02-14 08:51:00,
2013-02-14 03:56:00,32.7,28.4,29.79,SSE,158,2.2,2.2,84,0.00,,,0.00,WUHU216HW,2013-02-14 08:56:00,
2013-02-14 04:01:00,32.7,28.4,29.79,South,180,1.5,2.6,84,0.00,,,0.00,WUHU216HW,2013-02-14 09:01:00,
2013-02-14 04:06:00,32.7,28.4,29.78,SSE,158,1.5,2.6,84,0.00,,,0.00,WUHU216HW,2013-02-14 09:06:00,
2013-02-14 04:11:00,32.9,28.5,29.78,South,180,1.5,1.5,84,0.00,,,0.00,WUHU216HW,2013-02-14 09:11:00,
2013-02-14 04:16:00,32.9,28.8,29.78,South,180,3.5,4.9,85,0.00,,,0.00,WUHU216HW,2013-02-14 09:16:00,
2013-02-14 04:21:00,33.0,29.0,29.79,South,180,3.3,4.9,85,0.00,,,0.00,WUHU216HW,2013-02-14 09:21:00,
2013-02-14 04:26:00,33.0,29.0,29.77,South,180,3.5,3.5,85,0.00,,,0.00,WUHU216HW,2013-02-14 09:26:00,
2013-02-14 04:31:00,33.0,29.0,29.78,SSW,203,4.6,4.6,85,0.00,,,0.00,WUHU216HW,2013-02-14 09:31:00,
2013-02-14 04:36:00,33.2,29.1,29.77,SSE,158,1.7,4.6,85,0.00,,,0.00,WUHU216HW,2013-02-14 09:36:00,
2013-02-14 04:41:00,33.4,29.3,29.77,SSE,158,0.6,4.6,85,0.00,,,0.00,WUHU216HW,2013-02-14 09:41:00,
2013-02-14 04:48:00,33.4,29.3,29.77,SSE,158,4.0,4.0,85,0.00,,,0.00,WUHU216HW,2013-02-14 09:48:00,
2013-02-14 04:53:00,33.6,29.4,29.77,South,180,3.3,4.0,85,0.00,,,0.00,WUHU216HW,2013-02-14 09:53:00,
2013-02-14 04:58:00,33.6,29.4,29.77,ESE,113,2.4,4.0,85,0.00,,,0.00,WUHU216HW,2013-02-14 09:58:00,
2013-02-14 05:03:00,33.6,29.4,29.77,SSE,158,2.9,4.0,85,0.00,,,0.00,WUHU216HW,2013-02-14 10:03:00,
2013-02-14 05:08:00,33.8,29.6,29.77,SSE,158,3.3,4.0,85,0.00,,,0.00,WUHU216HW,2013-02-14 10:08:00,
2013-02-14 05:13:00,33.8,29.6,29.77,SE,135,4.9,4.9,85,0.00,,,0.00,WUHU216HW,2013-02-14 10:13:00,
2013-02-14 05:18:00,33.9,29.8,29.76,SSW,203,4.4,4.9,85,0.00,,,0.00,WUHU216HW,2013-02-14 10:18:00,
2013-02-14 05:23:00,33.9,29.8,29.76,SSE,158,2.9,4.9,85,0.00,,,0.00,WUHU216HW,2013-02-14 10:23:00,
2013-02-14 05:28:00,33.9,29.8,29.76,SSE,158,0.0,7.3,85,0.00,,,0.00,WUHU216HW,2013-02-14 10:28:00,
2013-02-14 05:33:00,33.9,29.8,29.75,SSE,158,2.4,7.3,85,0.00,,,0.00,WUHU216HW,2013-02-14 10:33:00,
2013-02-14 05:38:00,33.9,29.8,29.75,SSE,158,3.1,4.2,85,0.00,,,0.00,WUHU216HW,2013-02-14 10:38:00,
2013-02-14 05:43:00,34.1,30.0,29.74,SE,135,2.0,4.2,85,0.00,,,0.00,WUHU216HW,2013-02-14 10:43:00,
2013-02-14 05:48:00,34.1,30.0,29.74,SE,135,4.9,4.9,85,0.00,,,0.00,WUHU216HW,2013-02-14 10:48:00,
2013-02-14 05:53:00,34.1,30.0,29.75,SSE,158,3.5,4.9,85,0.00,,,0.00,WUHU216HW,2013-02-14 10:53:00,
2013-02-14 05:58:00,34.1,30.0,29.74,SSE,158,4.6,4.9,85,0.00,,,0.00,WUHU216HW,2013-02-14 10:58:00,
2013-02-14 06:03:00,34.3,30.2,29.74,SSE,158,2.0,4.6,85,0.00,,,0.00,WUHU216HW,2013-02-14 11:03:00,
2013-02-14 06:08:00,34.3,30.2,29.74,SSE,158,0.0,4.6,85,0.00,,,0.00,WUHU216HW,2013-02-14 11:08:00,
2013-02-14 06:13:00,34.3,29.9,29.74,SSE,158,0.0,9.1,84,0.00,,,0.00,WUHU216HW,2013-02-14 11:13:00,
2013-02-14 06:18:00,34.3,29.9,29.74,SSW,203,1.7,9.1,84,0.00,,,0.00,WUHU216HW,2013-02-14 11:18:00,
2013-02-14 06:23:00,34.3,29.9,29.74,South,180,5.1,5.1,84,0.00,,,0.00,WUHU216HW,2013-02-14 11:23:00,
2013-02-14 06:28:00,34.5,30.0,29.74,South,180,4.2,5.1,84,0.00,,,0.00,WUHU216HW,2013-02-14 11:28:00,
2013-02-14 06:33:00,34.7,30.2,29.73,South,180,6.7,6.7,84,0.00,,,0.00,WUHU216HW,2013-02-14 11:33:00,
2013-02-14 06:38:00,34.8,30.4,29.73,SSW,203,7.3,7.3,84,0.00,,,0.00,WUHU216HW,2013-02-14 11:38:00,
2013-02-14 06:43:00,34.8,30.1,29.72,SSE,158,5.5,7.3,83,0.00,,,0.00,WUHU216HW,2013-02-14 11:43:00,
2013-02-14 06:48:00,35.2,30.5,29.72,SSW,203,4.4,7.3,83,0.00,,,0.00,WUHU216HW,2013-02-14 11:48:00,
2013-02-14 06:53:00,35.2,30.5,29.72,South,180,5.3,5.5,83,0.00,,,0.00,WUHU216HW,2013-02-14 11:53:00,
2013-02-14 06:58:00,35.4,30.7,29.72,SSW,203,12.0,12.0,83,0.00,,,0.00,WUHU216HW,2013-02-14 11:58:00,
2013-02-14 07:03:00,35.4,30.4,29.72,SSW,203,8.9,12.0,82,0.00,,,0.00,WUHU216HW,2013-02-14 12:03:00,
2013-02-14 07:08:00,35.4,30.4,29.71,SSE,158,2.2,12.0,82,0.00,,,0.00,WUHU216HW,2013-02-14 12:08:00,
2013-02-14 07:13:00,35.4,30.4,29.72,SSE,158,7.3,8.2,82,0.00,,,0.00,WUHU216HW,2013-02-14 12:13:00,
2013-02-14 07:18:00,35.6,30.5,29.72,South,180,4.9,7.3,82,0.00,,,0.00,WUHU216HW,2013-02-14 12:18:00,
2013-02-14 07:23:00,35.7,30.4,29.72,South,180,6.9,7.3,81,0.00,,,0.00,WUHU216HW,2013-02-14 12:23:00,
2013-02-14 07:28:00,35.7,30.4,29.72,SSW,203,9.8,9.8,81,0.00,,,0.00,WUHU216HW,2013-02-14 12:28:00,
2013-02-14 07:33:00,35.7,30.4,29.73,SSE,158,5.1,10.5,81,0.00,,,0.00,WUHU216HW,2013-02-14 12:33:00,
2013-02-14 07:38:00,35.7,30.4,29.73,South,180,6.9,10.5,81,0.00,,,0.00,WUHU216HW,2013-02-14 12:38:00,
2013-02-14 07:43:00,35.7,30.4,29.73,SE,135,2.4,6.9,81,0.00,,,0.00,WUHU216HW,2013-02-14 12:43:00,
2013-02-14 07:48:00,35.7,30.4,29.73,SE,135,2.4,6.9,81,0.00,,,0.00,WUHU216HW,2013-02-14 12:48:00,
2013-02-14 07:53:00,35.7,30.4,29.73,SE,135,5.1,5.1,81,0.00,,,0.00,WUHU216HW,2013-02-14 12:53:00,
2013-02-14 07:58:00,35.9,30.6,29.73,SE,135,5.1,5.1,81,0.00,,,0.00,WUHU216HW,2013-02-14 12:58:00,
2013-02-14 08:03:00,35.9,30.6,29.74,SE,135,5.1,5.1,81,0.00,,,0.00,WUHU216HW,2013-02-14 13:03:00,
2013-02-14 08:08:00,35.9,30.3,29.74,SSE,158,5.1,6.4,80,0.00,,,0.00,WUHU216HW,2013-02-14 13:08:00,
2013-02-14 08:13:00,35.9,30.3,29.74,South,180,4.4,6.4,80,0.00,,,0.00,WUHU216HW,2013-02-14 13:13:00,
2013-02-14 08:18:00,35.9,30.3,29.74,South,180,4.0,5.1,80,0.00,,,0.00,WUHU216HW,2013-02-14 13:18:00,
2013-02-14 08:23:00,35.7,30.2,29.75,SSE,158,3.3,8.9,80,0.00,,,0.00,WUHU216HW,2013-02-14 13:23:00,
2013-02-14 08:28:00,35.9,30.3,29.75,SSW,203,4.6,8.9,80,0.00,,,0.00,WUHU216HW,2013-02-14 13:28:00,
2013-02-14 08:33:00,36.1,30.5,29.75,South,180,8.0,11.6,80,0.00,,,0.00,WUHU216HW,2013-02-14 13:33:00,
2013-02-14 08:38:00,36.3,30.4,29.75,SSW,203,5.8,11.6,79,0.00,,,0.00,WUHU216HW,2013-02-14 13:38:00,
2013-02-14 08:43:00,36.3,30.4,29.76,South,180,7.1,8.5,79,0.00,,,0.00,WUHU216HW,2013-02-14 13:43:00,
2013-02-14 08:48:00,36.6,30.5,29.76,South,180,8.9,9.8,79,0.00,,,0.00,WUHU216HW,2013-02-14 13:48:00,
2013-02-14 08:53:00,37.2,31.3,29.76,South,180,8.9,9.8,79,0.00,,,0.00,WUHU216HW,2013-02-14 13:53:00,
2013-02-14 08:58:00,37.5,31.3,29.76,South,180,9.6,9.6,78,0.00,,,0.00,WUHU216HW,2013-02-14 13:58:00,
2013-02-14 09:03:00,37.4,31.1,29.77,South,180,9.6,12.9,78,0.00,,,0.00,WUHU216HW,2013-02-14 14:03:00,
2013-02-14 09:08:00,37.4,31.1,29.77,SSW,203,11.6,12.9,78,0.00,,,0.00,WUHU216HW,2013-02-14 14:08:00,
2013-02-14 09:13:00,37.4,31.1,29.76,SSW,203,11.6,11.6,78,0.00,,,0.00,WUHU216HW,2013-02-14 14:13:00,
2013-02-14 09:18:00,37.4,31.1,29.76,SSW,203,11.6,11.6,78,0.00,,,0.00,WUHU216HW,2013-02-14 14:18:00,
2013-02-14 09:23:00,37.4,31.1,29.77,SSW,203,11.6,11.6,78,0.00,,,0.00,WUHU216HW,2013-02-14 14:23:00,
2013-02-14 09:28:00,37.4,31.1,29.77,SSW,203,11.6,11.6,78,0.00,,,0.00,WUHU216HW,2013-02-14 14:28:00,
2013-02-14 09:40:00,38.3,31.7,29.77,South,180,11.4,11.4,77,0.00,,,0.00,WUHU216HW,2013-02-14 14:40:00,
2013-02-14 09:45:00,38.3,31.7,29.77,South,180,11.4,11.4,77,0.00,,,0.00,WUHU216HW,2013-02-14 14:45:00,
2013-02-14 09:50:00,38.3,31.7,29.77,South,180,11.4,11.4,77,0.00,,,0.00,WUHU216HW,2013-02-14 14:50:00,
2013-02-14 09:55:00,38.3,31.7,29.78,South,180,11.4,11.4,77,0.00,,,0.00,WUHU216HW,2013-02-14 14:55:00,
2013-02-14 10:36:00,40.1,32.0,29.78,SSW,203,15.4,15.4,73,0.00,,,0.00,WUHU216HW,2013-02-14 15:36:00,
2013-02-14 10:41:00,40.1,32.4,29.78,SSW,203,15.4,15.4,74,0.00,,,0.00,WUHU216HW,2013-02-14 15:41:00,
2013-02-14 10:46:00,39.9,32.2,29.79,SSW,203,15.4,15.4,74,0.00,,,0.00,WUHU216HW,2013-02-14 15:46:00,
2013-02-14 10:51:00,39.9,32.2,29.79,SSW,203,15.6,15.6,74,0.00,,,0.00,WUHU216HW,2013-02-14 15:51:00,
2013-02-14 10:56:00,39.9,32.2,29.78,SSW,203,6.9,15.6,74,0.00,,,0.00,WUHU216HW,2013-02-14 15:56:00,
2013-02-14 11:01:00,39.9,32.2,29.78,SSW,203,10.2,15.6,74,0.00,,,0.00,WUHU216HW,2013-02-14 16:01:00,
2013-02-14 11:06:00,39.9,32.2,29.79,SSW,203,10.2,14.5,74,0.00,,,0.00,WUHU216HW,2013-02-14 16:06:00,
2013-02-14 11:11:00,39.9,32.2,29.79,SSW,203,10.2,10.2,74,0.00,,,0.00,WUHU216HW,2013-02-14 16:11:00,
2013-02-14 11:16:00,39.9,32.2,29.79,SSW,203,10.2,10.2,74,0.00,,,0.00,WUHU216HW,2013-02-14 16:16:00,
2013-02-14 11:43:00,40.2,32.2,29.79,SSW,203,19.0,19.0,73,0.00,,,0.00,WUHU216HW,2013-02-14 16:43:00,
2013-02-14 11:48:00,40.4,32.1,29.79,SSW,203,19.0,19.0,72,0.00,,,0.00,WUHU216HW,2013-02-14 16:48:00,
2013-02-14 11:53:00,40.6,32.6,29.79,SSW,203,15.6,19.0,73,0.00,,,0.00,WUHU216HW,2013-02-14 16:53:00,
2013-02-14 11:58:00,40.8,32.7,29.79,SW,225,6.2,19.0,73,0.00,,,0.00,WUHU216HW,2013-02-14 16:58:00,
2013-02-14 12:03:00,41.1,32.5,29.79,SW,225,17.4,17.4,71,0.00,,,0.00,WUHU216HW,2013-02-14 17:03:00,
2013-02-14 12:08:00,41.0,32.3,29.79,South,180,8.7,17.4,71,0.00,,,0.00,WUHU216HW,2013-02-14 17:08:00,
2013-02-14 12:13:00,40.6,31.9,29.79,WSW,248,7.6,14.0,71,0.00,,,0.00,WUHU216HW,2013-02-14 17:13:00,
2013-02-14 12:18:00,40.2,31.9,29.79,SSW,203,9.1,14.0,72,0.00,,,0.00,WUHU216HW,2013-02-14 17:18:00,
2013-02-14 12:23:00,39.9,31.9,29.79,SSW,203,22.5,22.5,73,0.00,,,0.00,WUHU216HW,2013-02-14 17:23:00,
2013-02-14 12:28:00,39.5,31.9,29.79,SSW,203,22.5,22.5,74,0.00,,,0.00,WUHU216HW,2013-02-14 17:28:00,
2013-02-14 12:33:00,39.5,31.9,29.79,SSW,203,22.5,22.5,74,0.00,,,0.00,WUHU216HW,2013-02-14 17:33:00,
2013-02-14 12:38:00,39.5,31.9,29.79,SSW,203,22.5,22.5,74,0.00,,,0.00,WUHU216HW,2013-02-14 17:38:00,
2013-02-14 12:43:00,39.5,31.9,29.79,SSW,203,22.5,22.5,74,0.00,,,0.00,WUHU216HW,2013-02-14 17:43:00,
2013-02-14 13:53:00,37.5,31.3,29.81,SSW,203,6.9,6.9,78,0.00,,,0.00,WUHU216HW,2013-02-14 18:53:00,
2013-02-14 13:58:00,37.5,31.3,29.81,SSW,203,6.9,6.9,78,0.00,,,0.00,WUHU216HW,2013-02-14 18:58:00,
2013-02-14 14:03:00,37.7,31.5,29.81,SSW,203,6.9,6.9,78,0.00,,,0.00,WUHU216HW,2013-02-14 19:03:00,
2013-02-14 14:08:00,37.7,31.5,29.81,SSW,203,6.9,6.9,78,0.00,,,0.00,WUHU216HW,2013-02-14 19:08:00,
2013-02-14 14:13:00,37.7,31.5,29.81,SSW,203,6.9,6.9,78,0.00,,,0.00,WUHU216HW,2013-02-14 19:13:00,
2013-02-14 14:24:00,37.9,31.0,29.81,SW,225,5.8,5.8,76,0.00,,,0.00,WUHU216HW,2013-02-14 19:24:00,
2013-02-14 14:29:00,37.9,31.0,29.81,SW,225,5.5,14.5,76,0.00,,,0.00,WUHU216HW,2013-02-14 19:29:00,
2013-02-14 14:34:00,37.7,30.8,29.82,WSW,248,18.5,18.5,76,0.00,,,0.00,WUHU216HW,2013-02-14 19:34:00,
2013-02-14 14:39:00,37.5,30.6,29.82,SW,225,10.9,18.5,76,0.00,,,0.00,WUHU216HW,2013-02-14 19:39:00,
2013-02-14 14:44:00,37.5,31.0,29.82,SSW,203,11.8,18.5,77,0.00,,,0.00,WUHU216HW,2013-02-14 19:44:00,
2013-02-14 14:49:00,37.5,30.6,29.82,SSW,203,6.0,11.8,76,0.00,,,0.00,WUHU216HW,2013-02-14 19:49:00,
2013-02-14 14:54:00,37.5,30.6,29.82,SSW,203,6.0,11.8,76,0.00,,,0.00,WUHU216HW,2013-02-14 19:54:00,
2013-02-14 14:59:00,37.5,30.6,29.82,SSW,203,6.0,6.0,76,0.00,,,0.00,WUHU216HW,2013-02-14 19:59:00,
2013-02-14 16:34:00,37.0,30.4,29.89,WNW,293,21.0,21.0,77,0.00,,,0.00,WUHU216HW,2013-02-14 21:34:00,
2013-02-14 16:39:00,37.0,30.4,29.89,WNW,293,21.0,21.0,77,0.00,,,0.00,WUHU216HW,2013-02-14 21:39:00,
2013-02-14 16:44:00,36.6,30.1,29.89,WNW,293,21.0,21.0,77,0.00,,,0.00,WUHU216HW,2013-02-14 21:44:00,
2013-02-14 16:49:00,36.6,30.1,29.90,WNW,293,5.1,21.0,77,0.00,,,0.00,WUHU216HW,2013-02-14 21:49:00,
2013-02-14 16:54:00,36.6,30.1,29.90,WNW,293,5.1,5.1,77,0.00,,,0.00,WUHU216HW,2013-02-14 21:54:00,
2013-02-14 16:59:00,36.5,29.9,29.91,WNW,293,5.1,5.1,77,0.00,,,0.00,WUHU216HW,2013-02-14 21:59:00,
2013-02-14 17:04:00,36.5,29.9,29.92,WNW,293,5.1,5.1,77,0.00,,,0.00,WUHU216HW,2013-02-14 22:04:00,
2013-02-14 17:09:00,36.3,28.7,29.92,North,0,3.3,5.1,74,0.00,,,0.00,WUHU216HW,2013-02-14 22:09:00,
2013-02-14 17:14:00,36.3,29.1,29.92,West,270,6.9,6.9,75,0.00,,,0.00,WUHU216HW,2013-02-14 22:14:00,
2013-02-14 17:19:00,36.3,29.4,29.93,NNW,338,5.8,7.6,76,0.00,,,0.00,WUHU216HW,2013-02-14 22:19:00,
2013-02-14 17:24:00,36.3,29.1,29.93,WNW,293,10.5,10.5,75,0.00,,,0.00,WUHU216HW,2013-02-14 22:24:00,
2013-02-14 17:29:00,36.3,29.1,29.93,West,270,2.6,10.5,74,0.00,,,0.00,WUHU216HW,2013-02-14 22:29:00,
2013-02-14 17:34:00,36.3,28.7,29.93,WSW,248,6.2,20.3,74,0.00,,,0.00,WUHU216HW,2013-02-14 22:34:00,
2013-02-14 17:39:00,36.3,28.7,29.93,WSW,248,6.2,20.3,74,0.00,,,0.00,WUHU216HW,2013-02-14 22:39:00,
2013-02-14 17:44:00,36.3,28.7,29.93,WSW,248,6.2,6.2,74,0.00,,,0.00,WUHU216HW,2013-02-14 22:44:00,
2013-02-14 17:49:00,36.1,28.2,29.94,WNW,293,0.8,6.2,73,0.00,,,0.00,WUHU216HW,2013-02-14 22:49:00,
2013-02-14 17:54:00,36.1,28.6,29.95,NW,315,9.1,9.1,74,0.00,,,0.00,WUHU216HW,2013-02-14 22:54:00,
2013-02-14 17:59:00,36.1,28.6,29.94,NW,315,11.4,11.4,74,0.00,,,0.00,WUHU216HW,2013-02-14 22:59:00,
2013-02-14 18:04:00,36.1,28.6,29.94,NW,315,11.4,11.4,74,0.00,,,0.00,WUHU216HW,2013-02-14 23:04:00,
2013-02-14 18:09:00,36.1,28.6,29.94,NW,315,11.4,11.4,74,0.00,,,0.00,WUHU216HW,2013-02-14 23:09:00,
2013-02-14 18:14:00,36.1,28.6,29.95,NW,315,11.4,11.4,74,0.00,,,0.00,WUHU216HW,2013-02-14 23:14:00,
2013-02-14 18:19:00,36.1,28.6,29.95,NW,315,11.4,11.4,74,0.00,,,0.00,WUHU216HW,2013-02-14 23:19:00,
2013-02-14 20:04:00,35.2,26.7,30.01,West,270,8.2,8.2,71,0.00,,,0.00,WUHU216HW,2013-02-15 01:04:00,
2013-02-14 20:09:00,35.2,26.7,30.01,WNW,293,4.6,8.2,71,0.00,,,0.00,WUHU216HW,2013-02-15 01:09:00,
2013-02-14 20:14:00,35.0,26.5,30.01,WNW,293,6.0,8.2,71,0.00,,,0.00,WUHU216HW,2013-02-15 01:14:00,
2013-02-14 20:19:00,34.8,26.3,30.01,NW,315,1.7,6.0,71,0.00,,,0.00,WUHU216HW,2013-02-15 01:19:00,
2013-02-14 20:24:00,34.8,26.3,30.01,West,270,5.1,7.3,71,0.00,,,0.00,WUHU216HW,2013-02-15 01:24:00,
2013-02-14 20:29:00,34.8,26.3,30.00,North,0,7.1,7.3,71,0.00,,,0.00,WUHU216HW,2013-02-15 01:29:00,
2013-02-14 20:34:00,34.8,26.3,30.01,NNW,338,11.1,11.1,71,0.00,,,0.00,WUHU216HW,2013-02-15 01:34:00,
2013-02-14 20:39:00,34.8,26.3,30.01,NNW,338,4.0,11.1,71,0.00,,,0.00,WUHU216HW,2013-02-15 01:39:00,
2013-02-14 20:44:00,34.8,26.3,30.01,NNW,338,2.0,13.1,71,0.00,,,0.00,WUHU216HW,2013-02-15 01:44:00,
2013-02-14 20:49:00,34.8,26.3,30.01,WNW,293,8.5,13.1,71,0.00,,,0.00,WUHU216HW,2013-02-15 01:49:00,
2013-02-14 20:54:00,34.7,26.2,30.01,NNW,338,4.2,8.9,71,0.00,,,0.00,WUHU216HW,2013-02-15 01:54:00,
2013-02-14 20:59:00,34.5,26.0,30.01,NNW,338,4.9,12.9,71,0.00,,,0.00,WUHU216HW,2013-02-15 01:59:00,
2013-02-14 21:04:00,34.5,26.3,30.01,WNW,293,6.2,12.9,72,0.00,,,0.00,WUHU216HW,2013-02-15 02:04:00,
2013-02-14 21:09:00,34.5,26.3,30.01,North,0,11.1,11.1,72,0.00,,,0.00,WUHU216HW,2013-02-15 02:09:00,
2013-02-14 21:14:00,34.5,26.0,30.02,NW,315,10.0,11.1,71,0.00,,,0.00,WUHU216HW,2013-02-15 02:14:00,
2013-02-14 21:19:00,34.3,25.8,30.02,NW,315,1.5,11.1,71,0.00,,,0.00,WUHU216HW,2013-02-15 02:19:00,
2013-02-14 21:24:00,34.3,25.8,30.02,WNW,293,6.9,6.9,71,0.00,,,0.00,WUHU216HW,2013-02-15 02:24:00,
2013-02-14 21:29:00,34.3,25.8,30.02,West,270,6.2,6.9,71,0.00,,,0.00,WUHU216HW,2013-02-15 02:29:00,
2013-02-14 21:34:00,34.3,25.8,30.02,NW,315,6.0,6.9,71,0.00,,,0.00,WUHU216HW,2013-02-15 02:34:00,
2013-02-14 21:39:00,34.3,25.5,30.02,WNW,293,2.4,10.2,70,0.00,,,0.00,WUHU216HW,2013-02-15 02:39:00,
2013-02-14 21:44:00,34.3,25.5,30.02,North,0,3.3,10.2,70,0.00,,,0.00,WUHU216HW,2013-02-15 02:44:00,
2013-02-14 21:49:00,34.3,25.5,30.02,WSW,248,4.6,11.1,70,0.00,,,0.00,WUHU216HW,2013-02-15 02:49:00,
2013-02-14 21:54:00,34.3,25.5,30.02,NW,315,9.3,11.1,70,0.00,,,0.00,WUHU216HW,2013-02-15 02:54:00,
2013-02-14 21:59:00,34.1,25.5,30.02,West,270,6.2,9.3,70,0.00,,,0.00,WUHU216HW,2013-02-15 02:59:00,
2013-02-14 22:04:00,34.1,25.3,30.02,WNW,293,6.0,16.3,70,0.00,,,0.00,WUHU216HW,2013-02-15 03:04:00,
2013-02-14 22:09:00,34.1,25.3,30.02,West,270,14.3,16.3,70,0.00,,,0.00,WUHU216HW,2013-02-15 03:09:00,
2013-02-14 22:14:00,34.1,24.9,30.02,NNW,338,4.0,14.3,69,0.00,,,0.00,WUHU216HW,2013-02-15 03:14:00,
2013-02-14 22:19:00,34.1,25.3,30.02,NW,315,16.5,16.5,70,0.00,,,0.00,WUHU216HW,2013-02-15 03:19:00,
2013-02-14 22:24:00,34.1,24.9,30.02,NNW,338,3.8,16.5,69,0.00,,,0.00,WUHU216HW,2013-02-15 03:24:00,
2013-02-14 22:29:00,34.1,24.9,30.02,NW,315,4.0,16.5,69,0.00,,,0.00,WUHU216HW,2013-02-15 03:29:00,
2013-02-14 22:34:00,34.1,24.9,30.02,North,0,6.9,6.9,69,0.00,,,0.00,WUHU216HW,2013-02-15 03:34:00,
2013-02-14 22:39:00,33.9,24.8,30.02,WNW,293,4.2,6.9,69,0.00,,,0.00,WUHU216HW,2013-02-15 03:39:00,
2013-02-14 22:44:00,33.9,24.8,30.02,NW,315,6.0,6.9,69,0.00,,,0.00,WUHU216HW,2013-02-15 03:44:00,
2013-02-14 22:49:00,33.9,24.8,30.02,North,0,1.5,14.7,69,0.00,,,0.00,WUHU216HW,2013-02-15 03:49:00,
2013-02-14 22:54:00,33.9,24.8,30.02,NW,315,5.1,14.7,69,0.00,,,0.00,WUHU216HW,2013-02-15 03:54:00,
2013-02-14 22:59:00,33.9,24.8,30.02,North,0,8.7,8.7,69,0.00,,,0.00,WUHU216HW,2013-02-15 03:59:00,
2013-02-14 23:04:00,33.9,24.8,30.02,North,0,11.1,11.1,69,0.00,,,0.00,WUHU216HW,2013-02-15 04:04:00,
2013-02-14 23:09:00,33.9,24.4,30.02,West,270,4.9,11.1,68,0.00,,,0.00,WUHU216HW,2013-02-15 04:09:00,
2013-02-14 23:14:00,33.9,24.4,30.02,NW,315,4.4,7.6,68,0.00,,,0.00,WUHU216HW,2013-02-15 04:14:00,
2013-02-14 23:19:00,33.9,24.4,30.02,WNW,293,6.0,7.6,68,0.00,,,0.00,WUHU216HW,2013-02-15 04:19:00,
2013-02-14 23:24:00,33.9,24.4,30.02,NW,315,8.7,8.7,68,0.00,,,0.00,WUHU216HW,2013-02-15 04:24:00,
2013-02-14 23:29:00,33.9,24.4,30.01,WNW,293,2.6,8.7,68,0.00,,,0.00,WUHU216HW,2013-02-15 04:29:00,
2013-02-14 23:34:00,33.9,24.4,30.01,NNW,338,3.8,8.7,68,0.00,,,0.00,WUHU216HW,2013-02-15 04:34:00,
2013-02-14 23:39:00,33.9,24.4,30.01,WNW,293,10.2,10.2,68,0.00,,,0.00,WUHU216HW,2013-02-15 04:39:00,
2013-02-14 23:44:00,33.9,24.4,30.01,West,270,6.4,10.2,68,0.00,,,0.00,WUHU216HW,2013-02-15 04:44:00,
2013-02-14 23:49:00,33.9,24.4,30.01,West,270,3.8,10.2,68,0.00,,,0.00,WUHU216HW,2013-02-15 04:49:00,
2013-02-14 23:54:00,33.9,24.4,30.01,WNW,293,0.0,10.9,68,0.00,,,0.00,WUHU216HW,2013-02-15 04:54:00,
2013-02-14 23:59:00,33.9,24.4,30.01,WNW,293,4.0,10.9,68,0.00,,,0.00,WUHU216HW,2013-02-15 04:59:00,